Location: Malanoce
(44.2500°N, 7.4667°E)
Time: 06:02:37
(UTC+00:00)

USA 281 - Pass Details

Date: 17 November 2025
Orbit: 1079 x 1080 km, 106.0° (Epoch: 08 December)

Event Time Altitude Azimuth Distance (km) Brightness Sun altitude
Exits shadow 19:02:02 58° 353° (N) 1,252 3.5 -32.2°
Drops below altitude 10° 19:07:13 10° 338° (NNW) 2,928 5.7 -33.2°
Sets 19:09:44 0° 338° (NNW) 3,888 6.5 -33.6°
